EW8041 Weather Reports


Display with metric or nautical units.
time (UTC)temp
F
wind
direction
speed
MPH
gust
MPH
rain 1hr
in
rain 24hr
in
rain mn
in
humidity
%
barometer
mb
20260902194554 98 30 1.0 3.0 0.00 0.00 0.00 55 1017.2
20260902193530 97 29 2.0 4.0 0.00 0.00 0.00 57 1017.5
20260902192546 97 29 2.0 3.0 0.00 0.00 0.00 58 1017.5
20260902191522 96 60 1.0 2.0 0.00 0.00 0.00 58 1017.6
20260902190518 96 53 1.0 3.0 0.00 0.00 0.00 60 1017.7
20260902185534 95 68 1.0 4.0 0.00 0.00 0.00 60 1017.9
20260902184530 94 53 1.0 4.0 0.00 0.00 0.00 60 1017.9
20260902183526 95 36 1.0 2.0 0.00 0.00 0.00 59 1018.0
20260902182522 96 36 0.0 2.0 0.00 0.00 0.00 59 1018.2
20260902181558 97 63 2.0 7.0 0.00 0.00 0.00 60 1018.3
20260902180534 97 67 1.0 6.0 0.00 0.00 0.00 60 1018.2
20260902175530 97 76 1.0 3.0 0.00 0.00 0.00 62 1018.4
20260902174526 96 68 1.0 4.0 0.00 0.00 0.00 61 1018.5
20260902173522 95 69 1.0 3.0 0.00 0.00 0.00 63 1018.7
20260902172538 96 69 1.0 2.0 0.00 0.00 0.00 63 1019.0
20260902171554 95 70 1.0 4.0 0.00 0.00 0.00 64 1019.1
20260902170530 94 78 2.0 3.0 0.00 0.00 0.00 66 1019.2
20260902165546 93 72 1.0 3.0 0.00 0.00 0.00 66 1019.4
20260902164522 94 75 1.0 3.0 0.00 0.00 0.00 67 1019.5
20260902163517 94 80 1.0 3.0 0.00 0.00 0.00 68 1019.7
20260902162614 94 80 1.0 3.0 0.00 0.00 0.00 67 1019.8
20260902161529 93 80 1.0 4.0 0.00 0.00 0.00 70 1019.9
20260902160525 92 80 1.0 2.0 0.00 0.00 0.00 71 1019.8
20260902155521 92 79 1.0 3.0 0.00 0.00 0.00 72 1019.9
20260902154517 92 81 2.0 4.0 0.00 0.00 0.00 74 1020.0
20260902153553 91 135 1.0 3.0 0.00 0.00 0.00 73 1020.0
20260902152529 91 111 0.0 1.0 0.00 0.00 0.00 74 1020.0
20260902151525 90 111 1.0 2.0 0.00 0.00 0.00 78 1020.1
20260902145517 89 111 1.0 2.0 0.00 0.00 0.00 81 1019.9
20260902144533 88 110 1.0 2.0 0.00 0.00 0.00 83 1019.8
20260902143528 87 111 0.0 2.0 0.00 0.00 0.00 87 1019.8
20260902142525 86 111 1.0 2.0 0.00 0.00 0.00 89 1019.7
20260902141521 85 111 0.0 1.0 0.00 0.00 0.00 89 1019.7
20260902140517 84 111 0.0 1.0 0.00 0.00 0.00 91 1019.9
20260902135532 83 111 0.0 1.0 0.00 0.00 0.00 92 1019.7
20260902134549 81 0.0 0.0 0.00 0.00 0.00 92 1019.7
20260902133524 80 0.0 0.0 0.00 0.00 0.00 93 1019.9
20260902132520 79 111 0.0 1.0 0.00 0.00 0.00 93 1019.8
20260902131516 78 0.0 0.0 0.00 0.00 0.00 94 1019.8
20260902130533 77 110 0.0 1.0 0.00 0.00 0.00 94 1019.5
20260902125528 76 0.0 0.0 0.00 0.00 0.00 94 1019.6
20260902124525 75 110 0.0 1.0 0.00 0.00 0.00 95 1019.6
20260902123521 74 0.0 0.0 0.00 0.00 0.00 94 1019.7
20260902122536 73 0.0 0.0 0.00 0.00 0.00 94 1019.6
20260902121532 73 0.0 0.0 0.00 0.00 0.00 94 1019.4
20260902120528 73 110 0.0 1.0 0.00 0.00 0.00 94 1019.4
20260902115524 73 111 0.0 1.0 0.00 0.00 0.00 94 1019.2
20260902114520 72 0.0 0.0 0.00 0.00 0.00 93 1019.1
20260902113516 72 0.0 0.0 0.00 0.00 0.00 93 1018.8
20260902112532 72 0.0 0.0 0.00 0.00 0.00 93 1018.9
20260902111528 72 0.0 0.0 0.00 0.00 0.00 93 1018.8
20260902110544 73 0.0 0.0 0.00 0.00 0.00 93 1018.7
20260902105520 73 0.0 0.0 0.00 0.00 0.00 92 1018.7
20260902104516 73 0.0 0.0 0.00 0.00 0.00 92 1018.5
20260902103552 73 0.0 0.0 0.00 0.00 0.00 92 1018.6
20260902102529 73 0.0 0.0 0.00 0.00 0.00 92 1018.5
20260902101523 73 113 0.0 1.0 0.00 0.00 0.00 92 1018.4
20260902100519 73 0.0 0.0 0.00 0.00 0.00 92 1018.4
20260902095536 73 0.0 0.0 0.00 0.00 0.00 91 1018.3
20260902094611 73 0.0 0.0 0.00 0.00 0.00 91 1018.1
20260902093527 73 120 1.0 2.0 0.00 0.00 0.00 91 1018.1
20260902092523 73 0.0 0.0 0.00 0.00 0.00 91 1018.0
20260902091519 73 0.0 0.0 0.00 0.00 0.00 90 1018.1
20260902090535 73 0.0 0.0 0.00 0.00 0.00 90 1017.8
20260902085531 73 123 0.0 1.0 0.00 0.00 0.00 90 1017.8
20260902084527 73 0.0 0.0 0.00 0.00 0.00 90 1017.7
20260902083523 74 0.0 0.0 0.00 0.00 0.00 89 1017.7
20260902082518 74 0.0 0.0 0.00 0.00 0.00 89 1017.6
20260902081534 74 0.0 0.0 0.00 0.00 0.00 89 1017.5
20260902080530 74 0.0 0.0 0.00 0.00 0.00 89 1017.4
20260902075526 74 123 1.0 2.0 0.00 0.00 0.00 89 1017.2
20260902074522 74 0.0 0.0 0.00 0.00 0.00 88 1017.2
20260902073518 74 0.0 0.0 0.00 0.00 0.00 88 1017.2
20260902072534 74 0.0 0.0 0.00 0.00 0.00 88 1017.3
20260902071530 74 0.0 0.0 0.00 0.00 0.00 87 1017.4
20260902070526 75 0.0 0.0 0.00 0.00 0.00 87 1017.5
20260902065522 75 0.0 0.0 0.00 0.00 0.00 87 1017.5
20260902064518 75 126 0.0 1.0 0.00 0.00 0.00 87 1017.7
20260902063534 75 126 0.0 1.0 0.00 0.00 0.00 86 1017.6
20260902062530 75 126 0.0 1.0 0.00 0.00 0.00 86 1017.7
20260902061526 76 126 0.0 1.0 0.00 0.00 0.00 86 1017.8
20260902060522 76 0.0 0.0 0.00 0.00 0.00 85 1017.7
20260902055517 76 126 0.0 1.0 0.00 0.00 0.00 85 1017.8
20260902054554 76 0.0 0.0 0.00 0.00 0.00 85 1017.9
20260902053530 76 126 0.0 1.0 0.00 0.00 0.00 84 1018.0
20260902052525 76 0.0 0.0 0.00 0.00 0.00 84 1018.0
20260902051522 77 0.0 0.0 0.00 0.00 0.00 84 1017.8
20260902050518 77 0.0 0.0 0.00 0.00 0.00 83 1017.9
20260902045534 77 0.0 0.0 0.00 0.00 0.00 83 1018.0
20260902044530 77 0.0 0.0 0.00 0.00 0.00 82 1018.0
20260902043526 77 0.0 0.0 0.00 0.00 0.00 82 1018.0
20260902042522 78 0.0 0.0 0.00 0.00 0.00 81 1018.0
20260902041538 78 0.0 0.0 0.00 0.00 0.00 81 1018.0
20260902040554 78 0.0 0.0 0.00 0.00 0.00 80 1018.0
20260902035550 79 0.0 0.0 0.00 0.00 0.00 80 1018.0
20260902034526 79 0.0 0.0 0.00 0.00 0.00 79 1017.9
20260902033522 79 0.0 0.0 0.00 0.00 0.00 79 1017.9
20260902032538 79 126 0.0 1.0 0.00 0.00 0.00 78 1017.9
20260902031534 80 0.0 0.0 0.00 0.00 0.00 78 1018.0
20260902030530 80 126 0.0 1.0 0.00 0.00 0.00 77 1018.0
20260902025526 80 126 0.0 1.0 0.00 0.00 0.00 77 1018.1
20260902024522 81 126 0.0 1.0 0.00 0.00 0.00 76 1018.0
20260902023517 81 0.0 0.0 0.00 0.00 0.00 75 1017.9
20260902022533 81 0.0 0.0 0.00 0.00 0.00 75 1017.9
20260902021528 82 0.0 0.0 0.00 0.00 0.00 74 1017.9
20260902020543 82 126 1.0 1.0 0.00 0.00 0.00 74 1017.8
20260902015519 82 126 1.0 1.0 0.00 0.00 0.00 73 1017.7
20260902014555 83 0.0 0.0 0.00 0.00 0.00 72 1017.7
20260902013530 83 0.0 0.0 0.00 0.00 0.00 71 1017.5
20260902012526 84 126 0.0 1.0 0.00 0.00 0.00 70 1017.3
20260902011603 84 126 0.0 1.0 0.00 0.00 0.00 69 1017.3
20260902010518 85 126 0.0 1.0 0.00 0.00 0.00 68 1017.1
20260902005534 86 126 0.0 1.0 0.00 0.00 0.00 67 1017.2
20260902004530 86 126 0.0 1.0 0.00 0.00 0.00 66 1017.3
20260902003526 87 158 1.0 1.0 0.00 0.00 0.00 65 1017.3
20260902002542 88 158 1.0 1.0 0.00 0.00 0.00 63 1017.2
20260902001518 89 158 1.0 2.0 0.00 0.00 0.00 62 1017.1
20260902000533 90 158 0.0 1.0 0.00 0.00 0.00 61 1017.3
20260901235530 90 149 0.0 2.0 0.00 0.00 0.00 61 1017.3
20260901234645 91 187 1.0 2.0 0.00 0.00 0.00 60 1017.3
20260901233520 92 188 0.0 2.0 0.00 0.00 0.00 59 1017.2
20260901232516 93 189 0.0 1.0 0.00 0.00 0.00 58 1017.3
20260901231532 93 189 0.0 2.0 0.00 0.00 0.00 57 1017.3
20260901230527 94 189 0.0 1.0 0.00 0.00 0.00 56 1017.3
20260901225523 94 189 0.0 1.0 0.00 0.00 0.00 56 1017.3
20260901224519 94 54 1.0 2.0 0.00 0.00 0.00 56 1017.2
20260901223535 95 54 0.0 1.0 0.00 0.00 0.00 55 1017.1
20260901222531 95 54 1.0 2.0 0.00 0.00 0.00 55 1017.1
20260901221547 96 54 1.0 3.0 0.00 0.00 0.00 55 1017.1
20260901220523 96 54 1.0 2.0 0.00 0.00 0.00 54 1017.0
20260901215519 96 54 0.0 2.0 0.00 0.00 0.00 54 1017.1
20260901214535 96 54 1.0 3.0 0.00 0.00 0.00 54 1017.1
20260901213530 97 53 1.0 2.0 0.00 0.00 0.00 54 1017.0
20260901212527 96 49 1.0 2.0 0.00 0.00 0.00 54 1017.1
20260901211603 96 45 1.0 3.0 0.00 0.00 0.00 56 1017.2
20260901210519 96 47 1.0 2.0 0.00 0.00 0.00 55 1017.3
20260901205535 96 51 1.0 3.0 0.00 0.00 0.00 56 1017.5
20260901204531 95 54 2.0 4.0 0.00 0.00 0.00 56 1017.5
20260901203527 96 50 0.0 1.0 0.00 0.00 0.00 56 1017.7
20260901202543 96 50 1.0 3.0 0.00 0.00 0.00 59 1017.8
20260901201519 94 50 1.0 2.0 0.00 0.00 0.00 60 1017.8
20260901200535 93 50 1.0 2.0 0.00 0.00 0.00 60 1017.9
20260901195531 94 50 1.0 3.0 0.00 0.00 0.00 59 1018.1